Location: Boćki
(52.6512°N, 23.0459°E)
Time: 06:16:32
(UTC+01:00)

ISS - Pass Details

Date: 30 January 2019
Orbit: 403 x 411 km, 51.6° (Epoch: 21 February)

Event Time Altitude Azimuth Distance (km) Brightness Sun altitude
Rises 17:24:54 0° 252° (WSW) 2,331 2.2 -11.5°
Reaches altitude 10° 17:26:59 10° 249° (WSW) 1,473 0.5 -11.8°
Maximum altitude 17:30:15 63° 168° (SSE) 463 -3.6 -12.3°
Enters shadow 17:32:13 22° 92° (E) 960 -2.5 -12.6°
